Time,TemperatureF,DewpointF,PressureIn,WindDirection,WindDirectionDegrees,WindSpeedMPH,WindSpeedGustMPH,Humidity,HourlyPrecipIn,Conditions,Clouds,dailyrainin,SoftwareType,DateUTC
2013-02-02 00:03:00,17.0,9.0,30.07,WSW,251,3.0,6.0,71,0.00,,,0.00,,2013-02-02 05:03:00,
2013-02-02 00:12:00,17.0,9.0,30.07,WSW,251,3.0,6.0,71,0.00,,,0.00,,2013-02-02 05:12:00,
2013-02-02 00:22:00,17.0,9.0,30.07,West,279,4.0,6.0,71,0.00,,,0.00,,2013-02-02 05:22:00,
2013-02-02 00:33:00,16.0,8.0,30.07,WSW,242,5.0,8.0,70,0.00,,,0.00,,2013-02-02 05:33:00,
2013-02-02 00:41:00,16.0,8.0,30.07,WSW,242,5.0,8.0,70,0.00,,,0.00,,2013-02-02 05:41:00,
2013-02-02 00:52:00,16.0,8.0,30.07,NNW,337,2.0,7.0,70,0.00,,,0.00,,2013-02-02 05:52:00,
2013-02-02 01:02:00,16.0,8.0,30.06,WSW,258,4.0,7.0,70,0.00,,,0.00,,2013-02-02 06:02:00,
2013-02-02 01:12:00,16.0,8.0,30.06,WSW,258,4.0,7.0,70,0.00,,,0.00,,2013-02-02 06:12:00,
2013-02-02 01:22:00,16.0,8.0,30.07,SSW,197,3.0,7.0,70,0.00,,,0.00,,2013-02-02 06:22:00,
2013-02-02 01:32:00,16.0,8.0,30.08,WNW,293,3.0,5.0,70,0.00,,,0.00,,2013-02-02 06:32:00,
2013-02-02 01:42:00,16.0,8.0,30.08,WNW,293,3.0,5.0,70,0.00,,,0.00,,2013-02-02 06:42:00,
2013-02-02 01:52:00,16.0,8.0,30.08,NW,304,3.0,8.0,69,0.00,,,0.00,,2013-02-02 06:52:00,
2013-02-02 02:02:00,16.0,8.0,30.07,WSW,247,1.0,5.0,70,0.00,,,0.00,,2013-02-02 07:02:00,
2013-02-02 02:12:00,16.0,8.0,30.09,WSW,252,2.0,4.0,70,0.00,,,0.00,,2013-02-02 07:12:00,
2013-02-02 02:21:00,16.0,8.0,30.09,WSW,252,2.0,4.0,70,0.00,,,0.00,,2013-02-02 07:21:00,
2013-02-02 02:32:00,16.0,8.0,30.07,WSW,247,2.0,10.0,70,0.00,,,0.00,,2013-02-02 07:32:00,
2013-02-02 02:42:00,16.0,8.0,30.07,WSW,247,2.0,10.0,70,0.00,,,0.00,,2013-02-02 07:42:00,
2013-02-02 02:52:00,16.0,8.0,30.08,SW,233,5.0,12.0,70,0.00,,,0.00,,2013-02-02 07:52:00,
2013-02-02 03:01:00,16.0,8.0,30.07,WNW,287,2.0,10.0,70,0.00,,,0.00,,2013-02-02 08:01:00,
2013-02-02 03:11:00,16.0,8.0,30.07,WNW,287,2.0,10.0,70,0.00,,,0.00,,2013-02-02 08:11:00,
2013-02-02 03:21:00,15.0,7.0,30.07,West,273,3.0,10.0,70,0.00,,,0.00,,2013-02-02 08:21:00,
2013-02-02 03:31:00,16.0,8.0,30.07,SW,215,4.0,9.0,71,0.00,,,0.00,,2013-02-02 08:31:00,
2013-02-02 03:41:00,16.0,8.0,30.07,SW,215,4.0,9.0,71,0.00,,,0.00,,2013-02-02 08:41:00,
2013-02-02 03:53:00,16.0,8.0,30.07,SW,235,4.0,11.0,70,0.00,,,0.00,,2013-02-02 08:53:00,
2013-02-02 04:01:00,16.0,8.0,30.07,WSW,240,2.0,7.0,70,0.00,,,0.00,,2013-02-02 09:01:00,
2013-02-02 04:11:00,16.0,8.0,30.07,WSW,240,2.0,7.0,70,0.00,,,0.00,,2013-02-02 09:11:00,
2013-02-02 04:22:00,16.0,8.0,30.06,WSW,237,4.0,10.0,70,0.00,,,0.00,,2013-02-02 09:22:00,
2013-02-02 04:31:00,15.0,7.0,30.05,SW,227,5.0,7.0,70,0.00,,,0.00,,2013-02-02 09:31:00,
2013-02-02 04:42:00,15.0,7.0,30.05,SW,227,5.0,7.0,70,0.00,,,0.00,,2013-02-02 09:42:00,
2013-02-02 04:52:00,14.0,6.0,30.05,WSW,246,3.0,9.0,70,0.00,,,0.00,,2013-02-02 09:52:00,
2013-02-02 05:02:00,13.0,5.0,30.05,WSW,246,4.0,7.0,71,0.00,,,0.00,,2013-02-02 10:02:00,
2013-02-02 05:11:00,13.0,5.0,30.05,WSW,253,4.0,7.0,71,0.00,,,0.00,,2013-02-02 10:11:00,
2013-02-02 05:21:00,13.0,5.0,30.05,WSW,253,4.0,7.0,71,0.00,,,0.00,,2013-02-02 10:21:00,
2013-02-02 05:32:00,13.0,5.0,30.05,WSW,253,4.0,7.0,71,0.00,,,0.00,,2013-02-02 10:32:00,
2013-02-02 05:42:00,13.0,5.0,30.05,WSW,253,4.0,7.0,71,0.00,,,0.00,,2013-02-02 10:42:00,
2013-02-02 05:52:00,13.0,5.0,30.05,SW,236,4.0,11.0,70,0.00,,,0.00,,2013-02-02 10:52:00,
2013-02-02 06:01:00,13.0,5.0,30.04,SW,235,3.0,13.0,69,0.00,,,0.00,,2013-02-02 11:01:00,
2013-02-02 06:11:00,12.0,4.0,30.04,SW,225,3.0,9.0,70,0.00,,,0.00,,2013-02-02 11:11:00,
2013-02-02 06:22:00,12.0,4.0,30.04,SW,225,3.0,9.0,70,0.00,,,0.00,,2013-02-02 11:22:00,
2013-02-02 06:32:00,12.0,4.0,30.03,SW,232,3.0,9.0,70,0.00,,,0.00,,2013-02-02 11:32:00,
2013-02-02 06:42:00,12.0,4.0,30.03,SW,232,3.0,9.0,70,0.00,,,0.00,,2013-02-02 11:42:00,
2013-02-02 06:52:00,12.0,4.0,30.03,WSW,249,2.0,7.0,70,0.00,,,0.00,,2013-02-02 11:52:00,
2013-02-02 07:02:00,12.0,4.0,30.04,SW,223,4.0,8.0,70,0.00,,,0.00,,2013-02-02 12:02:00,
2013-02-02 07:11:00,12.0,4.0,30.04,SW,223,4.0,8.0,70,0.00,,,0.00,,2013-02-02 12:11:00,
2013-02-02 07:22:00,12.0,4.0,30.03,South,184,2.0,16.0,69,0.00,,,0.00,,2013-02-02 12:22:00,
2013-02-02 07:32:00,13.0,5.0,30.03,SW,232,4.0,11.0,69,0.00,,,0.00,,2013-02-02 12:32:00,
2013-02-02 07:42:00,13.0,5.0,30.03,SW,232,4.0,11.0,69,0.00,,,0.00,,2013-02-02 12:42:00,
2013-02-02 07:52:00,13.0,5.0,30.03,SW,230,3.0,10.0,69,0.00,,,0.00,,2013-02-02 12:52:00,
2013-02-02 08:03:00,13.0,5.0,30.03,SW,234,3.0,10.0,69,0.00,,,0.00,,2013-02-02 13:03:00,
2013-02-02 08:11:00,13.0,5.0,30.03,SW,234,3.0,10.0,69,0.00,,,0.00,,2013-02-02 13:11:00,
2013-02-02 08:21:00,14.0,6.0,30.04,SW,226,2.0,9.0,69,0.00,,,0.00,,2013-02-02 13:21:00,
2013-02-02 08:32:00,14.0,5.0,30.05,WSW,237,4.0,13.0,68,0.00,,,0.00,,2013-02-02 13:32:00,
2013-02-02 08:42:00,14.0,5.0,30.05,WSW,237,4.0,13.0,68,0.00,,,0.00,,2013-02-02 13:42:00,
2013-02-02 08:52:00,15.0,6.0,30.05,WSW,240,4.0,9.0,67,0.00,,,0.00,,2013-02-02 13:52:00,
2013-02-02 09:02:00,16.0,6.0,30.04,SW,228,4.0,14.0,65,0.00,,,0.00,,2013-02-02 14:02:00,
2013-02-02 09:11:00,16.0,6.0,30.04,SW,228,4.0,14.0,65,0.00,,,0.00,,2013-02-02 14:11:00,
2013-02-02 09:22:00,16.0,6.0,30.04,WSW,257,4.0,20.0,63,0.00,,,0.00,,2013-02-02 14:22:00,
2013-02-02 09:32:00,17.0,7.0,30.03,WSW,242,3.0,8.0,64,0.00,,,0.00,,2013-02-02 14:32:00,
2013-02-02 09:42:00,17.0,7.0,30.03,WSW,242,3.0,8.0,64,0.00,,,0.00,,2013-02-02 14:42:00,
2013-02-02 09:52:00,17.0,6.0,30.03,SW,233,4.0,11.0,62,0.00,,,0.00,,2013-02-02 14:52:00,
2013-02-02 10:03:00,18.0,7.0,30.03,SW,222,4.0,13.0,62,0.00,,,0.00,,2013-02-02 15:03:00,
2013-02-02 10:12:00,18.0,7.0,30.03,SW,222,4.0,13.0,62,0.00,,,0.00,,2013-02-02 15:12:00,
2013-02-02 10:22:00,20.0,9.0,30.03,SW,230,2.0,11.0,61,0.00,,,0.00,,2013-02-02 15:22:00,
2013-02-02 10:32:00,21.0,9.0,30.03,SW,236,6.0,11.0,58,0.00,,,0.00,,2013-02-02 15:32:00,
2013-02-02 10:52:00,21.0,8.0,30.02,WSW,242,5.0,12.0,57,0.00,,,0.00,,2013-02-02 15:52:00,
2013-02-02 11:03:00,22.0,9.0,30.01,WSW,252,3.0,10.0,56,0.00,,,0.00,,2013-02-02 16:03:00,
2013-02-02 11:22:00,24.0,9.0,30.01,SW,233,6.0,15.0,53,0.00,,,0.00,,2013-02-02 16:22:00,
2013-02-02 11:32:00,24.0,9.0,30.01,SW,226,3.0,11.0,53,0.00,,,0.00,,2013-02-02 16:32:00,
2013-02-02 11:52:00,24.0,9.0,30.00,SW,216,4.0,6.0,53,0.00,,,0.00,,2013-02-02 16:52:00,
2013-02-02 12:02:00,25.0,10.0,29.99,SW,218,6.0,17.0,52,0.00,,,0.00,,2013-02-02 17:02:00,
2013-02-02 12:22:00,24.0,9.0,29.99,SW,232,6.0,11.0,51,0.00,,,0.00,,2013-02-02 17:22:00,
2013-02-02 12:32:00,23.0,8.0,29.99,SW,232,6.0,12.0,52,0.00,,,0.00,,2013-02-02 17:32:00,
2013-02-02 12:52:00,23.0,8.0,29.98,WSW,248,5.0,13.0,53,0.00,,,0.00,,2013-02-02 17:52:00,
2013-02-02 13:02:00,23.0,9.0,29.97,WSW,250,4.0,12.0,54,0.00,,,0.00,,2013-02-02 18:02:00,
2013-02-02 13:12:00,23.0,9.0,29.97,WSW,250,4.0,12.0,54,0.00,,,0.00,,2013-02-02 18:12:00,
2013-02-02 13:22:00,23.0,10.0,29.97,WSW,246,3.0,9.0,56,0.00,,,0.00,,2013-02-02 18:22:00,
2013-02-02 13:32:00,23.0,10.0,29.96,SW,227,3.0,7.0,57,0.00,,,0.00,,2013-02-02 18:32:00,
2013-02-02 13:42:00,23.0,10.0,29.96,SW,227,3.0,7.0,57,0.00,,,0.00,,2013-02-02 18:42:00,
2013-02-02 13:52:00,24.0,12.0,29.95,SSE,167,4.0,7.0,59,0.00,,,0.00,,2013-02-02 18:52:00,
2013-02-02 14:02:00,25.0,12.0,29.95,SSW,195,4.0,9.0,56,0.00,,,0.00,,2013-02-02 19:02:00,
2013-02-02 14:12:00,26.0,11.0,29.94,SW,233,5.0,11.0,53,0.00,,,0.00,,2013-02-02 19:12:00,
2013-02-02 14:21:00,26.0,11.0,29.94,SW,233,5.0,11.0,53,0.00,,,0.00,,2013-02-02 19:21:00,
2013-02-02 14:32:00,25.0,10.0,29.93,SW,231,5.0,9.0,52,0.00,,,0.00,,2013-02-02 19:32:00,
2013-02-02 14:52:00,25.0,10.0,29.94,WSW,239,4.0,9.0,52,0.00,,,0.00,,2013-02-02 19:52:00,
2013-02-02 15:01:00,24.0,9.0,29.93,SW,226,4.0,14.0,53,0.00,,,0.00,,2013-02-02 20:01:00,
2013-02-02 15:22:00,24.0,10.0,29.93,SW,231,2.0,9.0,54,0.00,,,0.00,,2013-02-02 20:22:00,
2013-02-02 15:32:00,24.0,10.0,29.92,WSW,237,4.0,8.0,54,0.00,,,0.00,,2013-02-02 20:32:00,
2013-02-02 15:42:00,24.0,10.0,29.92,WSW,237,4.0,8.0,54,0.00,,,0.00,,2013-02-02 20:42:00,
2013-02-02 15:52:00,23.0,9.0,29.92,SW,228,5.0,9.0,54,0.00,,,0.00,,2013-02-02 20:52:00,
2013-02-02 16:02:00,23.0,10.0,29.92,WSW,238,3.0,9.0,56,0.00,,,0.00,,2013-02-02 21:02:00,
2013-02-02 16:11:00,23.0,10.0,29.92,WSW,238,3.0,9.0,56,0.00,,,0.00,,2013-02-02 21:11:00,
2013-02-02 16:21:00,22.0,9.0,29.91,SW,218,3.0,9.0,57,0.00,,,0.00,,2013-02-02 21:21:00,
2013-02-02 16:32:00,22.0,10.0,29.91,WSW,257,4.0,11.0,58,0.00,,,0.00,,2013-02-02 21:32:00,
2013-02-02 16:42:00,22.0,10.0,29.91,WSW,257,4.0,11.0,58,0.00,,,0.00,,2013-02-02 21:42:00,
2013-02-02 16:52:00,21.0,9.0,29.90,WSW,245,4.0,9.0,60,0.00,,,0.00,,2013-02-02 21:52:00,
2013-02-02 17:02:00,20.0,9.0,29.90,WSW,247,0.0,10.0,62,0.00,,,0.00,,2013-02-02 22:02:00,
2013-02-02 17:12:00,20.0,9.0,29.90,WSW,247,0.0,10.0,62,0.00,,,0.00,,2013-02-02 22:12:00,
2013-02-02 17:21:00,20.0,9.0,29.90,WSW,242,4.0,9.0,63,0.00,,,0.00,,2013-02-02 22:21:00,
2013-02-02 17:32:00,19.0,9.0,29.90,SW,226,4.0,7.0,64,0.00,,,0.00,,2013-02-02 22:32:00,
2013-02-02 17:42:00,19.0,9.0,29.90,SW,226,4.0,7.0,64,0.00,,,0.00,,2013-02-02 22:42:00,
2013-02-02 17:52:00,19.0,9.0,29.90,SSW,203,2.0,7.0,65,0.00,,,0.00,,2013-02-02 22:52:00,
2013-02-02 18:02:00,19.0,10.0,29.90,SW,214,3.0,7.0,66,0.00,,,0.00,,2013-02-02 23:02:00,
2013-02-02 18:11:00,19.0,10.0,29.90,SW,214,3.0,7.0,66,0.00,,,0.00,,2013-02-02 23:11:00,
2013-02-02 18:22:00,19.0,10.0,29.90,SW,232,4.0,9.0,67,0.00,,,0.00,,2013-02-02 23:22:00,
2013-02-02 18:32:00,19.0,10.0,29.90,WSW,243,2.0,6.0,68,0.00,,,0.00,,2013-02-02 23:32:00,
2013-02-02 18:42:00,19.0,10.0,29.90,WSW,243,2.0,6.0,68,0.00,,,0.00,,2013-02-02 23:42:00,
2013-02-02 18:52:00,19.0,11.0,29.90,SSW,193,2.0,5.0,69,0.00,,,0.00,,2013-02-02 23:52:00,
2013-02-02 19:02:00,18.0,10.0,29.90,South,183,2.0,6.0,69,0.00,,,0.00,,2013-02-03 00:02:00,
2013-02-02 19:11:00,18.0,10.0,29.90,South,183,2.0,6.0,69,0.00,,,0.00,,2013-02-03 00:11:00,
2013-02-02 19:22:00,18.0,10.0,29.90,WSW,237,2.0,5.0,70,0.00,,,0.00,,2013-02-03 00:22:00,
2013-02-02 19:32:00,18.0,10.0,29.91,WSW,240,3.0,7.0,70,0.00,,,0.00,,2013-02-03 00:32:00,
2013-02-02 19:42:00,18.0,10.0,29.91,WSW,240,3.0,7.0,70,0.00,,,0.00,,2013-02-03 00:42:00,
2013-02-02 19:52:00,18.0,10.0,29.91,SW,226,5.0,6.0,71,0.00,,,0.00,,2013-02-03 00:52:00,
2013-02-02 20:02:00,19.0,11.0,29.91,SW,228,5.0,8.0,70,0.00,,,0.00,,2013-02-03 01:02:00,
2013-02-02 20:11:00,19.0,11.0,29.91,SSW,193,3.0,10.0,71,0.00,,,0.00,,2013-02-03 01:11:00,
2013-02-02 20:21:00,19.0,11.0,29.91,SSW,193,3.0,10.0,71,0.00,,,0.00,,2013-02-03 01:21:00,
2013-02-02 20:32:00,19.0,11.0,29.91,SW,226,3.0,9.0,70,0.00,,,0.00,,2013-02-03 01:32:00,
2013-02-02 20:42:00,19.0,11.0,29.91,SW,226,3.0,9.0,70,0.00,,,0.00,,2013-02-03 01:42:00,
2013-02-02 20:52:00,19.0,11.0,29.90,South,187,4.0,7.0,71,0.00,,,0.00,,2013-02-03 01:52:00,
2013-02-02 21:01:00,18.0,10.0,29.91,SSE,166,3.0,6.0,71,0.00,,,0.00,,2013-02-03 02:01:00,
2013-02-02 21:11:00,18.0,10.0,29.91,SSE,166,3.0,6.0,71,0.00,,,0.00,,2013-02-03 02:11:00,
2013-02-02 21:21:00,18.0,10.0,29.91,South,176,2.0,7.0,71,0.00,,,0.00,,2013-02-03 02:21:00,
2013-02-02 21:32:00,18.0,11.0,29.91,SSE,157,2.0,9.0,72,0.00,,,0.00,,2013-02-03 02:32:00,
2013-02-02 21:42:00,18.0,11.0,29.91,SSE,157,2.0,9.0,72,0.00,,,0.00,,2013-02-03 02:42:00,
2013-02-02 21:52:00,17.0,10.0,29.91,SSE,165,4.0,9.0,72,0.00,,,0.00,,2013-02-03 02:52:00,
2013-02-02 22:02:00,17.0,10.0,29.91,South,180,2.0,7.0,73,0.00,,,0.00,,2013-02-03 03:02:00,
2013-02-02 22:11:00,17.0,10.0,29.91,South,186,4.0,5.0,73,0.00,,,0.00,,2013-02-03 03:11:00,
2013-02-02 22:21:00,17.0,10.0,29.91,South,186,4.0,5.0,73,0.00,,,0.00,,2013-02-03 03:21:00,
2013-02-02 22:32:00,16.0,9.0,29.91,SSE,157,3.0,4.0,73,0.00,,,0.00,,2013-02-03 03:32:00,
2013-02-02 22:42:00,16.0,9.0,29.91,SSE,157,3.0,4.0,73,0.00,,,0.00,,2013-02-03 03:42:00,
2013-02-02 22:52:00,16.0,9.0,29.91,SW,214,3.0,4.0,73,0.00,,,0.00,,2013-02-03 03:52:00,
2013-02-02 23:01:00,15.0,8.0,29.91,SSE,166,2.0,7.0,74,0.00,,,0.00,,2013-02-03 04:01:00,
2013-02-02 23:11:00,15.0,8.0,29.90,SE,135,0.0,5.0,74,0.00,,,0.00,,2013-02-03 04:11:00,
2013-02-02 23:21:00,15.0,8.0,29.90,SE,135,0.0,5.0,74,0.00,,,0.00,,2013-02-03 04:21:00,
2013-02-02 23:32:00,14.0,7.0,29.90,SE,140,3.0,5.0,74,0.00,,,0.00,,2013-02-03 04:32:00,
2013-02-02 23:42:00,14.0,7.0,29.90,SE,140,3.0,5.0,74,0.00,,,0.00,,2013-02-03 04:42:00,
2013-02-02 23:52:00,14.0,8.0,29.90,SE,145,3.0,5.0,75,0.00,,,0.00,,2013-02-03 04:52:00,